Other Public Products
Issued by NWS Charleston, SC

Current Version | Previous Version | Text Only | Print | Product List | Glossary Off
Versions: 1 2 3 4 5 6 7 8 9 10 11 12 13 14 15 16 17 18 19 20 21 22 23 24 25 26 27 28 29 30 31 32 33 34 35 36 37 38 39 40 41 42 43 44 45 46 47 48 49 50

825
FPUS82 KCHS 162112
OPUCHS

TEST...KCHS/KSAV Gateway Observations...TEST
National Weather Service Charleston SC
400 PM EST SAT DEC 16 2017

NOTE: "fair" indicates few or no clouds below 12,000 feet with no
significant weather and/or obstructions to visibility.

SCZ050-WAZ558-NCZ071-TXZ119-213-PAZ071-DCZ001-FLZ074-172-MI076-
NYZ176-178-MAZ016-IL014-TNZ027-NJZ106-GAZ044-MD014-162200-

...Gateway Observations for Charleston International...

CITY           SKY/WX    TMP DP  RH WIND       PRES   REMARKS
Chas Airport   MOSUNNY   53  36  52 SE7       30.25S
Seattle        CLOUDY    44  39  82 CALM      30.32S
Charlotte      PTSUNNY   49  22  34 W5        30.21S
Dallas DFW     CLOUDY    58  30  34 S17       30.02S
Dallas Love    CLOUDY    58  32  37 S14       30.05S
Philladelphia  MOCLDY    41  24  51 SW12      30.05S
Wash National  PTCLDY    47  23  38 S16       30.09S
Baltimore      PTCLDY    45  23  42 SW9       30.06S
Miami          PTSUNNY   78  61  55 NE8       30.15S
Detroit        CLOUDY    32  24  72 NE8       30.03R WCI  25
Newark         CLOUDY    38  25  59 SW17      30.01R WCI  28
Laguardia      CLOUDY    39  24  55 W16G22    30.00R WCI  30
J F K          CLOUDY    38  26  62 W15       30.02R WCI  29
Boston Logan   MOCLDY    32  15  49 W12       29.95R WCI  23
Ft. Lauderdale PTSUNNY   76  63  64 NE10      30.14F
Chicago O`Hare MOSUNNY   46  26  45 SW5       29.91R
Chicago Midway MOSUNNY   48  27  44 S7        29.91R
Houston Bush   CLOUDY    58  33  39 E15       30.06F
Houston Hobby  CLOUDY    56  40  55 E16G22    30.05F
Nashville      CLOUDY    52  28  39 SW9       30.16F
Atlanta        PTSUNNY   52  26  36 CALM      30.23F

$$

GAZ044-118-TXZ119-213-NCZ071-DCZ001-MDZ014-506-PAZ021-071-NJZ106-
NYZ176-178-MAZ106-OHZ011-021-055-MIZ076-KYZ091-ILZ014-INZ047-
MNZ060-ONZ431-162200-

...Gateway Observations for Savannah International...

CITY           SKY/WX    TMP DP  RH WIND       PRES   REMARKS
Savannah Arpt  MOSUNNY   56  27  32 SW5       30.25F
Atlanta        PTSUNNY   52  26  36 CALM      30.23F
Charlotte      PTSUNNY   49  22  34 W5        30.21S
Dallas DFW     CLOUDY    58  30  34 S17       30.02S
Houston Bush   CLOUDY    58  33  39 E15       30.06F
Wash National  PTCLDY    47  23  38 S16       30.09S
Wash Dulles    PTCLDY    45  23  42 SW9       30.07S
Baltimore      PTCLDY    45  23  42 SW9       30.06S
Philadelphia   MOCLDY    41  24  51 SW12      30.05S
Newark         CLOUDY    38  25  59 SW17      30.01R WCI  28
Laguardia      CLOUDY    39  24  55 W16G22    30.00R WCI  30
J F K          CLOUDY    38  26  62 W15       30.02R WCI  29
Boston         MOCLDY    32  15  49 W12       29.95R WCI  23
Pittsburg      PTCLDY    44  27  51 SW7       30.01R
Akron          PTCLDY    40  26  57 SW6       30.01R WCI  36
Cleveland      CLOUDY    40  29  64 SW9       30.03R WCI  34
Cincinnati     SUNNY     50  27  40 SW12G22   30.04S
Columbus       CLEAR     46  28  48 SW15G23   30.02S
Detroit        CLOUDY    32  24  72 NE8       30.03R WCI  25
Chicago O`Hare MOSUNNY   46  26  45 SW5       29.91R
Minneapolis    CLOUDY    29  24  82 N6        29.94R WCI  23
Indianapolis   SUNNY     50  29  44 SW17      29.99R
Toronto Canada PTCLDY    19   9  63 N13       30.07R WCI   7

$$




USA.gov is the U.S. government's official web portal to all federal, state and local government web resources and services.